TimeEDT,TemperatureF,Dew PointF,Humidity,Sea Level PressureIn,VisibilityMPH,Wind Direction,Wind SpeedMPH,Gust SpeedMPH,PrecipitationIn,Events,Conditions,WindDirDegrees,DateUTC
12:54 AM,64.0,60.1,87,30.25,10.0,WSW,4.6,-,N/A,,Partly Cloudy,240,2012-03-16 04:54:00
1:54 AM,61.0,59.0,93,30.24,10.0,South,3.5,-,N/A,,Clear,170,2012-03-16 05:54:00
2:54 AM,62.1,60.1,93,30.22,10.0,South,4.6,-,N/A,,Clear,190,2012-03-16 06:54:00
3:54 AM,63.0,61.0,93,30.19,10.0,SSW,4.6,-,N/A,,Overcast,200,2012-03-16 07:54:00
4:54 AM,63.0,61.0,93,30.19,10.0,SSW,4.6,-,N/A,,Clear,210,2012-03-16 08:54:00
5:54 AM,63.0,61.0,93,30.19,9.0,Variable,3.5,-,N/A,,Overcast,0,2012-03-16 09:54:00
6:54 AM,63.0,61.0,93,30.22,8.0,Calm,Calm,-,N/A,,Overcast,0,2012-03-16 10:54:00
7:54 AM,61.0,60.1,97,30.22,5.0,SE,3.5,-,N/A,,Partly Cloudy,140,2012-03-16 11:54:00
8:54 AM,63.0,62.1,97,30.23,4.0,SSE,4.6,-,N/A,,Scattered Clouds,150,2012-03-16 12:54:00
9:20 AM,64.4,62.6,94,30.22,6.0,South,4.6,-,N/A,,Partly Cloudy,170,2012-03-16 13:20:00
9:54 AM,64.9,62.1,90,30.23,5.0,Variable,3.5,-,N/A,,Mostly Cloudy,0,2012-03-16 13:54:00
10:54 AM,66.9,62.1,84,30.23,10.0,SSW,5.8,-,N/A,,Scattered Clouds,200,2012-03-16 14:54:00
11:54 AM,73.0,62.1,68,30.22,9.0,SSW,9.2,-,N/A,,Clear,210,2012-03-16 15:54:00
1:54 PM,79.0,61.0,54,30.17,10.0,WSW,12.7,18.4,N/A,,Partly Cloudy,240,2012-03-16 17:54:00
2:54 PM,80.1,57.9,47,30.14,10.0,WSW,11.5,-,N/A,,Mostly Cloudy,240,2012-03-16 18:54:00
3:54 PM,79.0,59.0,50,30.13,10.0,WSW,6.9,-,N/A,,Mostly Cloudy,240,2012-03-16 19:54:00
4:54 PM,82.0,55.9,41,30.11,10.0,Variable,3.5,-,N/A,,Partly Cloudy,0,2012-03-16 20:54:00
5:54 PM,80.1,59.0,48,30.10,10.0,Variable,4.6,-,N/A,,Clear,0,2012-03-16 21:54:00
6:54 PM,79.0,57.9,48,30.11,10.0,Calm,Calm,-,N/A,,Clear,0,2012-03-16 22:54:00
7:54 PM,73.0,61.0,66,30.13,10.0,SSE,8.1,-,N/A,,Clear,160,2012-03-16 23:54:00
8:54 PM,69.1,61.0,75,30.14,10.0,SSE,5.8,-,N/A,,Clear,160,2012-03-17 00:54:00
9:54 PM,68.0,60.1,76,30.16,10.0,South,4.6,-,N/A,,Clear,180,2012-03-17 01:54:00
10:54 PM,68.0,57.9,70,30.17,10.0,SSW,5.8,-,N/A,,Clear,210,2012-03-17 02:54:00
11:54 PM,66.0,59.0,78,30.18,9.0,SSW,6.9,-,N/A,,Partly Cloudy,200,2012-03-17 03:54:00